User: anonymous   Login
Location: Campillo
(40.8621°N, 4.2488°W)
Time: 01:27:05
(UTC+00:00)
Language:

Cosmos 1933 Rocket - Orbit

View from above orbital plane
View from above orbital plane
View from above satellite
View from above satellite

Ground track
Ground track

The orbit data is extracted from the following two-line orbital elements,

1 18959U 88020B   21207.53414265  .00000097  00000-0  88420-5 0  9995
2 18959  82.5395 308.7296 0015738 224.8451 135.1493 14.83486151781925
Epoch (UTC): 26 July 2021 12:49:09
Eccentricity: 0.0015738
inclination: 82.5395°
perigee height: 607 km
apogee height: 629 km
right ascension of ascending node: 308.7296°
argument of perigee: 224.8451°
revolutions per day: 14.83486151
mean anomaly at epoch: 135.1493°
orbit number at epoch: 78192

The dashed part of the orbit path shows where the satellite is in the earth's shadow,  

DLR